IW1CBG-23 Weather Reports


time (UTC)temp
C
wind
direction
speed
KPH
gust
KPH
rain 1hr
cm
rain 24hr
cm
rain mn
cm
humidity
%
barometer
mb
20260508014740 9 0.0 0.0 0.00 0.00 0.00 99 1009.0
20260508012702 8 0.0 0.0 0.00 0.00 0.00 99 1009.1
20260508010625 8 0.0 0.0 0.00 0.00 0.00 99 1009.1
20260508004548 8 0.0 0.0 0.00 0.00 0.00 99 1009.2
20260508002510 8 0.0 0.0 0.00 0.00 0.00 99 1009.4
20260508000434 9 0.0 0.0 0.00 0.00 0.00 99 1009.3
20260507234356 9 0.0 0.0 0.00 0.00 0.00 99 1009.4
20260507232319 9 0.0 0.0 0.00 0.00 0.00 99 1009.5
20260507230241 10 0.0 0.0 0.00 0.00 0.00 99 1009.7
20260507220049 9 0.0 0.0 0.00 0.00 0.00 99 1009.5
20260507214011 9 0.0 0.0 0.00 0.00 0.00 99 1009.3
20260507211933 10 0.0 0.0 0.00 0.00 0.00 99 1009.3
20260507205855 10 0.0 0.0 0.00 0.00 0.00 99 1009.2
20260507203817 10 0.0 0.0 0.00 0.00 0.00 99 1009.3
20260507201741 10 0.0 0.0 0.00 0.00 0.00 99 1009.3
20260507195703 9 0.0 0.0 0.00 0.00 0.00 99 1009.2
20260507193624 8 0.0 0.0 0.00 0.00 0.00 99 1008.9
20260507191547 8 0.0 0.0 0.00 0.00 0.00 99 1008.6
20260507185510 9 0.0 0.0 0.00 0.00 0.00 99 1008.3
20260507183434 9 0.0 0.0 0.00 0.00 0.00 99 1008.3
20260507175319 9 0.0 0.0 0.00 0.00 0.00 99 1008.1
20260507173241 9 0.0 0.0 0.00 0.00 0.00 99 1008.0
20260507171205 9 0.0 0.0 0.00 0.00 0.00 99 1008.1
20260507165127 10 0.0 0.0 0.00 0.00 0.00 99 1007.9
20260507163050 10 0.0 0.0 0.00 0.00 0.00 99 1007.8
20260507161012 10 0.0 0.0 0.00 0.00 0.00 99 1007.8
20260507152858 10 0.0 0.0 0.00 0.00 0.00 99 1007.8
20260507150821 10 0.0 0.0 0.00 0.00 0.00 99 1007.8
20260507144745 10 0.0 0.0 0.00 0.00 0.00 99 1007.7
20260507142711 11 0.0 0.0 0.00 0.00 0.00 99 1007.7
20260507140637 12 0.0 0.0 0.00 0.00 0.00 99 1007.8
20260507134554 12 0.0 0.0 0.00 0.00 0.00 99 1008.0
20260507132516 11 0.0 0.0 0.00 0.00 0.00 99 1008.3
20260507130440 13 0.0 0.0 0.00 0.00 0.00 99 1008.4
20260507122335 14 0.0 0.0 0.00 0.00 0.00 97 1008.5
20260507120246 13 0.0 0.0 0.00 0.00 0.00 99 1008.2
20260507114211 12 0.0 0.0 0.00 0.00 0.00 99 1008.4
20260507112141 15 0.0 0.0 0.00 0.00 0.00 99 1008.5
20260507110100 13 0.0 0.0 0.00 0.00 0.00 99 1008.8
20260507104021 12 0.0 0.0 0.00 0.00 0.00 99 1008.8
20260507101944 11 0.0 0.0 0.00 0.00 0.00 99 1008.9
20260507095905 11 0.0 0.0 0.00 0.00 0.00 99 1008.8
20260507093828 11 0.0 0.0 0.00 0.00 0.00 99 1008.7
20260507091749 10 0.0 0.0 0.00 0.00 0.00 99 1008.6
20260507085712 11 0.0 0.0 0.00 0.00 0.00 99 1008.5
20260507083636 11 0.0 0.0 0.00 0.00 0.00 99 1008.3
20260507081555 11 0.0 0.0 0.00 0.00 0.00 99 1008.2
20260507075518 9 0.0 0.0 0.00 0.00 0.00 99 1008.1
20260507073437 8 0.0 0.0 0.00 0.00 0.00 99 1008.0
20260507071400 8 0.0 0.0 0.00 0.00 0.00 99 1007.9
20260507065321 8 0.0 0.0 0.00 0.00 0.00 99 1007.8
20260507063243 8 0.0 0.0 0.00 0.00 0.00 99 1007.6
20260507061204 7 0.0 0.0 0.00 0.00 0.00 99 1007.5
20260507055126 7 0.0 0.0 0.00 0.00 0.00 99 1007.3
20260507053103 7 0.0 0.0 0.00 0.00 0.00 99 1007.1
20260507051010 7 0.0 0.0 0.00 0.00 0.00 99 1006.8
20260507044933 7 0.0 0.0 0.00 0.00 0.00 99 1006.6
20260507042856 7 0.0 0.0 0.00 0.00 0.00 99 1006.5
20260507040818 7 0.0 0.0 0.00 0.00 0.00 99 1006.3
20260507034741 7 0.0 0.0 0.00 0.00 0.00 99 1006.2
20260507032703 7 0.0 0.0 0.00 0.00 0.00 99 1006.1
20260507030625 7 0.0 0.0 0.00 0.00 0.00 99 1006.0
20260507024548 7 0.0 0.0 0.00 0.00 0.00 99 1006.0
20260507022511 7 0.0 0.0 0.00 0.00 0.00 99 1006.0
20260507020433 7 0.0 0.0 0.00 0.00 0.00 99 1005.9